Taylorville, IL

12:54 PM CST on December 10, 2016 (GMT -0600)
Taylorville Municipal

Weather History for KTAZ - February, 2014

Change the Weather History Date:

Thursday, February 20, 2014

  Actual Average (KSPI) Record (KSPI)
Temperature  
Mean Temperature 46 °F -  
Max Temperature 60 °F 43 °F 74 °F (2016)
Min Temperature 33 °F 25 °F -9 °F (1885)
Degree Days  
Heating Degree Days 18    
Moisture  
Dew Point 38 °F    
Average Humidity 82    
Maximum Humidity 100    
Minimum Humidity 66    
Precipitation  
Precipitation 0.03 in - - ()
Sea Level Pressure  
Sea Level Pressure 29.58 in    
Wind  
Wind Speed 20 mph (SSW)    
Max Wind Speed 39 mph    
Max Gust Speed 56 mph    
Visibility 10 miles    
Events Rain , Thunderstorm    
Averages and records for this station are not official NWS values.
T = Trace of Precipitation, MM = Missing Value Source: NWS Daily Summary

Daily Weather History Graph

Daily Weather History Graph

Search for Another Location

Airport or City:

Trip Planner

Search our weather history database for the weather conditions in past years. The results will help you decide how hot, cold, wet, or windy it might be!

Date:

Astronomy

Feb. 20, 2014 Rise Set
Actual Time 6:42 AM CST 5:39 PM CST
Civil Twilight 6:15 AM CST 6:06 PM CST
Nautical Twilight 5:44 AM CST 6:38 PM CST
Astronomical Twilight 5:13 AM CST 7:09 PM CST
Moon 11:32 PM CST (2/20) 9:27 AM CST (2/20)
Length of Visible Light 11h 51m
Length of Day
10h 56m
Waning Gibbous, 70% of the Moon is Illuminated
Feb 20
Waning Gibbous
Feb 22
Last Quarter
Mar 1
New
Mar 8
First Quarter
Mar 16
Full

Hourly Weather History & Observations

Time (CST) Temp. Windchill Dew Point Humidity Pressure Visibility Wind Dir Wind Speed Gust Speed Precip Events Conditions
12:15 AM 39.2 °F 30.8 °F 32.0 °F 75% 29.80 in 10.0 mi SE 15.0 mph - N/A   Overcast
12:35 AM 39.2 °F 30.2 °F 32.0 °F 75% 29.79 in 10.0 mi SE 17.3 mph 21.9 mph N/A Thunderstorm Thunderstorm
12:55 AM 39.2 °F 30.5 °F 32.0 °F 75% 29.78 in 10.0 mi SE 16.1 mph 23.0 mph N/A   Drizzle
1:15 AM 39.2 °F 30.5 °F 32.0 °F 75% 29.75 in 10.0 mi SE 16.1 mph 25.3 mph N/A Thunderstorm Overcast
1:35 AM 39.2 °F 29.8 °F 33.8 °F 81% 29.71 in 10.0 mi SE 18.4 mph 25.3 mph N/A   Overcast
1:55 AM 41.0 °F 31.4 °F 33.8 °F 76% 29.70 in 10.0 mi SE 21.9 mph 31.1 mph N/A   Overcast
2:20 AM 41.0 °F 31.4 °F 33.8 °F 76% 29.69 in 10.0 mi SE 21.9 mph 27.6 mph N/A   Overcast
2:35 AM 41.0 °F 31.9 °F 33.8 °F 76% 29.69 in 10.0 mi SE 19.6 mph 25.3 mph N/A   Overcast
2:55 AM 41.0 °F 31.9 °F 33.8 °F 76% 29.66 in 10.0 mi SE 19.6 mph 25.3 mph N/A   Overcast
3:35 AM 41.0 °F 32.8 °F 33.8 °F 76% 29.64 in 10.0 mi SE 16.1 mph - N/A   Overcast
3:55 AM 41.0 °F 32.5 °F 33.8 °F 76% 29.62 in 10.0 mi SSE 17.3 mph 23.0 mph N/A   Overcast
4:15 AM 41.0 °F 33.1 °F 33.8 °F 76% 29.61 in 10.0 mi SSE 15.0 mph - N/A   Overcast
4:35 AM 41.0 °F 33.1 °F 35.6 °F 81% 29.60 in 10.0 mi SSE 15.0 mph - N/A   Overcast
4:55 AM 41.0 °F 33.1 °F 35.6 °F 81% 29.60 in 10.0 mi SSE 15.0 mph - N/A   Overcast
5:15 AM 42.8 °F 34.8 °F 37.4 °F 81% 29.59 in 10.0 mi SSE 17.3 mph 25.3 mph N/A   Mostly Cloudy
6:15 AM 44.6 °F 37.2 °F 41.0 °F 87% 29.56 in 10.0 mi SSE 17.3 mph - N/A Thunderstorm Scattered Clouds
7:00 AM 44.6 °F 36.9 °F 42.8 °F 93% 29.56 in 10.0 mi South 18.4 mph 25.3 mph N/A   Mostly Cloudy
7:35 AM 46.4 °F 37.5 °F 46.4 °F 100% 29.54 in 4.0 mi South 27.6 mph 32.2 mph N/A Rain , Thunderstorm Light Thunderstorms and Rain
7:55 AM 50.0 °F - 48.2 °F 94% 29.47 in 4.0 mi SSE 32.2 mph 39.1 mph 0.03 in Rain Light Rain
8:15 AM 50.0 °F - 46.4 °F 87% 29.49 in 7.0 mi SSE 26.5 mph 34.5 mph N/A   Scattered Clouds
8:35 AM 50.0 °F - 50.0 °F 100% 29.50 in 10.0 mi South 24.2 mph 32.2 mph N/A   Mostly Cloudy
8:55 AM 51.8 °F - 50.0 °F 94% 29.50 in 10.0 mi South 21.9 mph 32.2 mph N/A   Scattered Clouds
9:15 AM 53.6 °F - 50.0 °F 88% 29.50 in 7.0 mi South 24.2 mph 32.2 mph N/A   Clear
9:35 AM 51.8 °F - 50.0 °F 94% 29.50 in 7.0 mi South 21.9 mph 25.3 mph N/A   Scattered Clouds
10:35 AM 53.6 °F - 51.8 °F 94% 29.49 in 7.0 mi South 23.0 mph 29.9 mph N/A   Mostly Cloudy
12:15 PM 57.2 °F - 53.6 °F 88% 29.40 in 10.0 mi South 23.0 mph 28.8 mph N/A   Overcast
12:35 PM 59.0 °F - 53.6 °F 82% 29.39 in 10.0 mi South 21.9 mph 35.7 mph N/A   Overcast
1:15 PM 59.0 °F - 55.4 °F 88% 29.37 in 10.0 mi South 25.3 mph 31.1 mph N/A   Overcast
1:35 PM 59.0 °F - 55.4 °F 88% 29.37 in 10.0 mi South 19.6 mph 29.9 mph N/A   Overcast
1:55 PM 57.2 °F - 55.4 °F 94% 29.36 in 10.0 mi South 19.6 mph 26.5 mph N/A   Overcast
2:35 PM 60.8 °F - 55.4 °F 82% 29.31 in 10.0 mi South 25.3 mph 31.1 mph N/A   Mostly Cloudy
5:35 PM 51.8 °F - 41.0 °F 67% 29.40 in 10.0 mi WSW 23.0 mph 36.8 mph N/A   Unknown
5:55 PM 46.4 °F 36.0 °F 35.6 °F 66% 29.44 in 10.0 mi West 39.1 mph 51.8 mph N/A   Scattered Clouds
6:15 PM 42.8 °F 31.1 °F 33.8 °F 70% 29.50 in 10.0 mi West 38.0 mph 56.4 mph N/A   Scattered Clouds
6:35 PM 41.0 °F 28.5 °F 32.0 °F 70% 29.54 in 10.0 mi West 39.1 mph 49.5 mph N/A   Mostly Cloudy
6:55 PM 39.2 °F 26.6 °F 32.0 °F 75% 29.57 in 10.0 mi West 34.5 mph 44.9 mph N/A   Overcast
7:15 PM 39.2 °F 27.6 °F 32.0 °F 75% 29.59 in 10.0 mi West 28.8 mph 41.4 mph N/A   Overcast
7:35 PM 37.4 °F 25.4 °F 32.0 °F 81% 29.59 in 10.0 mi West 27.6 mph 35.7 mph N/A   Overcast
7:55 PM 37.4 °F 25.6 °F 32.0 °F 81% 29.59 in 10.0 mi West 26.5 mph 41.4 mph N/A   Scattered Clouds
8:15 PM 37.4 °F 25.4 °F 32.0 °F 81% 29.63 in 10.0 mi West 27.6 mph 38.0 mph N/A   Scattered Clouds
8:35 PM 37.4 °F 26.4 °F 32.0 °F 81% 29.65 in 10.0 mi WSW 23.0 mph 32.2 mph N/A   Scattered Clouds
8:55 PM 37.4 °F 26.1 °F 32.0 °F 81% 29.65 in 10.0 mi West 24.2 mph 29.9 mph N/A   Scattered Clouds
9:15 PM 35.6 °F 24.8 °F 30.2 °F 81% 29.65 in 10.0 mi WSW 19.6 mph 26.5 mph N/A   Clear
9:35 PM 35.6 °F 25.2 °F 30.2 °F 81% 29.65 in 10.0 mi WSW 18.4 mph 24.2 mph N/A   Clear
9:55 PM 35.6 °F 25.5 °F 30.2 °F 81% 29.66 in 10.0 mi WSW 17.3 mph 25.3 mph N/A   Clear
10:15 PM 33.8 °F 23.5 °F 30.2 °F 87% 29.65 in 10.0 mi WSW 16.1 mph 25.3 mph N/A   Clear
10:35 PM 33.8 °F 22.8 °F 30.2 °F 87% 29.63 in 10.0 mi WSW 18.4 mph 23.0 mph N/A   Clear
10:55 PM 33.8 °F 23.9 °F 30.2 °F 87% 29.61 in 10.0 mi WSW 15.0 mph - N/A   Clear
11:15 PM 33.8 °F 23.5 °F 30.2 °F 87% 29.61 in 10.0 mi WSW 16.1 mph 19.6 mph N/A   Clear
11:35 PM 33.8 °F 23.2 °F 30.2 °F 87% 29.61 in 10.0 mi SW 17.3 mph - N/A   Clear
11:55 PM 35.6 °F 25.2 °F 30.2 °F 81% 29.62 in 10.0 mi SW 18.4 mph 24.2 mph N/A   Clear